BEIDOU-3 M4 (C28)

Last updated on Sun Feb 12 2023 00:03:20 GMT+0000 (Coordinated Universal Time)

1 43108U 18003B 23042.45446142 -.00000077 00000+0 00000+0 0 9992 2 43108 55.2180 344.4871 0004030 272.7609 265.2347 1.86230792 34600

Satellite not in orbit

BEIDOU-3 M4 (C28)